Hourly Data Report for November 26, 2012

BAGOTVILLE A
QUEBEC

48°20'00.000" N
71°00'00.000" W
159.10 m
7060400
71727
YBG

Download Data

Hourly Data (November 2012)
Hourly Data Report for November 26, 2012
TIME
LST
Temp Definition
°C
Dew Point Definition
°C
Rel Hum Definition
%
Precip. Amount Definition
mm

Wind Dir Definition
10's deg

Wind Spd Definition
km/h
Visibility Definition
km
Stn Press Definition
kPa
Hmdx Definition


Wind Chill Definition


Weather Definition


00:00 -5.0 -8.6 76   28 30 6.4 98.24   -13 Snow
01:00 -5.2 -9.2 73   28 33 4.8 98.31   -14 Snow,Blowing Snow
02:00 -5.9 -8.3 83   28 32 3.2 98.38   -14 Snow,Blowing Snow
03:00 -6.2 -8.7 82   28 28 3.2 98.45   -14 Snow,Blowing Snow
04:00 -6.0 -9.5 76   28 24 8.0 98.50   -13 Snow
05:00 -5.9 -10.5 70   29 26 12.9 98.58   -14 Snow
06:00 -6.0 -10.3 72   28 26 6.4 98.67   -14 Snow
07:00 -6.5 -10.1 76   32 17 6.4 98.80   -13 Snow
08:00 -6.9 -12.3 65   31 22 24.1 98.93   -14 Mostly Cloudy
09:00 -6.6 -12.3 64   30 22 32.2 99.02   -14 Mostly Cloudy
10:00 -6.2 -11.3 67   30 28 6.4 99.16   -14 Snow Showers
11:00 -6.1 -10.8 69   30 30 12.9 99.19   -14 Snow Showers
12:00 -5.8 -11.2 66   29 30 32.2 99.26   -14 Snow Showers
13:00 -4.6 -11.6 58   30 30 40.2 99.37   -12 Mostly Cloudy
14:00 -4.0 -10.3 62   30 30 40.2 99.43   -12 Mostly Cloudy
15:00 -4.1 -10.0 63   29 26 40.2 99.56   -11 Mainly Clear
16:00 -5.0 -13.1 53   29 17 40.2 99.66   -11 Mainly Clear
17:00 -6.0 -12.8 59   30 15 24.1 99.77   -12 Mainly Clear
18:00 -6.8 -10.5 75   31 13 24.1 99.92   -12 Mainly Clear
19:00 -7.0 -13.3 61   30 13 24.1 100.02   -13 Mainly Clear
20:00 -6.4 -12.5 62   30 15 24.1 100.07   -12 Snow Showers
21:00 -6.5 -11.3 69   29 11 24.1 100.13   -11 Snow Showers
22:00 -6.4 -11.6 67   30 13 24.1 100.18   -12 Snow Showers
23:00 -7.2 -12.7 65   26 13 24.1 100.20   -13 Mostly Cloudy

Notes on Data Quality.

Legend

  • E = Estimated
  • M = Missing
  • NA = Not Available*
  • [empty] = Indicates an unobserved value
Date modified: